Home > Weather > Modesto > Past weeks

Flag for USA Past Weather in Modesto, California, USA — Yesterday and Last 2 Weeks

Now
103 °F

Sunny.


Feels Like: 100 °F
Forecast: 72 / 107 °F
Wind: 12 mph from Northwest

Location: Modesto City-County-Sham Field

Current Time: Jun 28, 2016 at 3:48:50 PM

Latest Report: Jun 28, 2016 at 2:53 PM


Visibility: 10 mi

Pressure: 29.87 "Hg

Humidity: 16%

Dew Point: 49 °F

Location of ModestoLocation

Past Weather in Modesto — Graph

°F

Modesto Temperature Yesterday

Maximum temperature yesterday: 105 °F (at 4:53 PM)
Minimum temperature yesterday: 73 °F (at 5:53 AM)
Average temperature yesterday: 90 °F

High & Low Weather Summary for the Past Weeks

 TemperatureHumidityPressure
High105 °F (Jun 27, 4:53 PM)75% (Jun 17, 5:53 AM)30.16 "Hg (Jun 17, 5:53 AM)
Low51 °F (Jun 15, 4:53 AM)7% (Jun 22, 6:53 PM)29.83 "Hg (Jun 25, 5:53 PM)
Average78 °F34%29.96 "Hg
* Reported Jun 13 1:53 PM — Jun 28 1:53 PM, Modesto, Weather by CustomWeather, © 2016

Note: Actual official high and low records may vary slightly from our data, if they occured in-between our weather recording intervals... More about our weather records

Advertising

Modesto Weather History for the Previous 24 Hours

Scroll right to see more
 ConditionsComfort  
Time TempWeatherWind HumidityBarometerVisibility
1:53 PM
Tue, Jun 28
102 °FSunny.9 mph18%29.89 "Hg10 mi
12:53 PM98 °FSunny.8 mph22%29.90 "Hg10 mi
11:53 AM96 °FSunny.9 mph23%29.92 "Hg10 mi
10:53 AM91 °FSunny.8 mph28%29.93 "Hg10 mi
9:53 AM89 °FSunny.9 mph25%29.93 "Hg10 mi
8:53 AM86 °FSunny.8 mph28%29.93 "Hg10 mi
7:53 AM80 °FSunny.8 mph35%29.92 "Hg10 mi
6:53 AM75 °FSunny.7 mph42%29.91 "Hg10 mi
5:53 AM74 °FClear.3 mph45%29.90 "Hg10 mi
4:53 AM73 °FClear.No wind48%29.90 "Hg10 mi
3:53 AM77 °FClear.5 mph40%29.88 "Hg10 mi
2:53 AM78 °FClear.N/A39%29.88 "Hg10 mi
1:53 AM80 °FClear.7 mph35%29.88 "Hg10 mi
12:53 AM82 °FClear.6 mph34%29.88 "Hg10 mi
11:53 PM
Mon, Jun 27
85 °FClear.No wind29%29.88 "Hg10 mi
10:53 PM90 °FClear.9 mph20%29.87 "Hg10 mi
9:53 PM93 °FClear.16 mph19%29.87 "Hg10 mi
8:53 PM94 °FSunny.14 mph21%29.86 "Hg10 mi
7:53 PM97 °FPassing clouds.13 mph17%29.85 "Hg10 mi
6:53 PM102 °FPartly sunny.14 mph17%29.85 "Hg10 mi
5:53 PM104 °FPartly sunny.13 mph13%29.85 "Hg10 mi
4:53 PM105 °FPartly sunny.15 mph12%29.86 "Hg10 mi
3:53 PM104 °FPartly sunny.15 mph14%29.88 "Hg10 mi
Weather by CustomWeather, © 2016

See weather overviewHow to use our weather pages